Location: Newark
(51.0500°N, 12.4500°E)
Time: 02:13:27
(UTC+00:00)

Tiros 1 - Pass Details

Date: 26 February 2020
Orbit: 630 x 664 km, 48.4° (Epoch: 06 April)

Event Time Altitude Azimuth Distance (km) Brightness Sun altitude
Rises 06:06:57 0° 277° (W) 2,919 - -0.1°
Exits shadow 06:07:01 - 277° (W) 2,901 9.8 -0.1°
Reaches altitude 10° 06:10:07 10° 255° (WSW) 2,007 9.2 0.3°
Maximum altitude 06:12:46 15° 220° (SW) 1,684 9.1 0.7°
Drops below altitude 10° 06:15:24 10° 184° (S) 2,002 9.9 1.1°
Sets 06:18:34 0° 162° (SSE) 2,909 11.0 1.6°
